Change the Weather History Date:

Wednesday, March 27, 2013

  Actual Average Record
Temperature  
Mean Temperature 9 °F 34 °F  
Max Temperature 23 °F 43 °F 78 °F (1946)
Min Temperature -5 °F 24 °F -17 °F (1921)
Degree Days  
Heating Degree Days 56 31  
Month to date heating degree days 1404 1015  
Since 1 July heating degree days 8134 7591  
Cooling Degree Days 0 0  
Month to date cooling degree days 0 0  
Year to date cooling degree days 0 0  
Moisture  
Dew Point 7 °F    
Average Humidity 89    
Maximum Humidity 100    
Minimum Humidity 77    
Precipitation  
Precipitation 0.00 in 0.03 in 1.07 in (1950)
Month to date precipitation 0.60 0.69  
Year to date precipitation 1.14 1.60  
Sea Level Pressure  
Sea Level Pressure 30.26 in    
Wind  
Wind Speed 4 mph (East)    
Max Wind Speed 12 mph    
Max Gust Speed 14 mph    
Visibility 6 miles    
Events Fog    
T = Trace of Precipitation, MM = Missing Value Source: NWS Daily Summary

Daily Weather History Graph

Daily Weather History Graph

Search for Another Location

Airport or City:

Trip Planner

Search our weather history database for the weather conditions in past years. The results will help you decide how hot, cold, wet, or windy it might be!

Date:

Astronomy

Mar. 27, 2013 Rise Set
Actual Time 7:32 AM CDT 8:08 PM CDT
Civil Twilight 7:01 AM CDT 8:40 PM CDT
Nautical Twilight 6:24 AM CDT 9:17 PM CDT
Astronomical Twilight 5:45 AM CDT 9:56 PM CDT
Moon 9:01 PM CDT (3/27) 7:21 AM CDT (3/27)
Length of Visible Light 13h 38m
Length of Day
12h 35m
Full, 100% of the Moon is Illuminated
Mar 27
Full
Apr 2
Last Quarter
Apr 10
New
Apr 18
First Quarter
Apr 25
Full

Hourly Weather History & Observations

Time (CDT) Temp. Windchill Dew Point Humidity Pressure Visibility Wind Dir Wind Speed Gust Speed Precip Events Conditions
12:54 AM 1.9 °F -5.6 °F -0.0 °F 91% 30.30 in 9.0 mi ESE 3.5 mph - N/A   Clear
1:54 AM 1.0 °F - -4.0 °F 79% 30.29 in 4.0 mi Calm Calm - N/A   Haze
2:54 AM 1.9 °F - -0.9 °F 88% 30.27 in 7.0 mi Calm Calm - N/A   Clear
3:54 AM -0.9 °F -8.9 °F -4.0 °F 87% 30.27 in 8.0 mi ENE 3.5 mph - N/A   Clear
4:54 AM -2.0 °F - -6.0 °F 83% 30.27 in 7.0 mi Calm Calm - N/A   Clear
5:54 AM -2.0 °F -10.1 °F -6.0 °F 83% 30.27 in 7.0 mi East 3.5 mph - N/A   Clear
6:54 AM -0.9 °F - -5.1 °F 83% 30.28 in 7.0 mi Calm Calm - N/A   Clear
7:54 AM -2.9 °F - -6.0 °F 87% 30.29 in 5.0 mi Calm Calm - N/A   Clear
8:54 AM 1.0 °F - 1.0 °F 100% 30.30 in 7.0 mi Calm Calm - N/A   Clear
9:54 AM 5.0 °F - 1.0 °F 84% 30.30 in 9.0 mi Calm Calm - N/A   Clear
10:54 AM 9.0 °F 2.4 °F 6.1 °F 88% 30.30 in 10.0 mi ESE 3.5 mph - N/A   Clear
11:54 AM 16.0 °F 10.4 °F 10.0 °F 77% 30.30 in 10.0 mi ENE 3.5 mph - N/A   Clear
12:54 PM 19.9 °F 10.1 °F 15.1 °F 81% 30.30 in 10.0 mi ENE 8.1 mph - N/A   Clear
1:54 PM 21.0 °F 12.4 °F 16.0 °F 81% 30.30 in 10.0 mi ENE 6.9 mph - N/A   Clear
2:54 PM 21.0 °F 10.6 °F 16.0 °F 81% 30.29 in 10.0 mi ENE 9.2 mph - N/A   Clear
3:54 PM 23.0 °F 13.1 °F 17.1 °F 78% 30.28 in 10.0 mi ENE 9.2 mph - N/A   Clear
4:54 PM 23.0 °F 13.9 °F 18.0 °F 81% 30.28 in 9.0 mi East 8.1 mph - N/A   Clear
5:54 PM 23.0 °F 13.1 °F 18.0 °F 81% 30.28 in 10.0 mi East 9.2 mph - N/A   Clear
6:54 PM 21.0 °F 11.4 °F 17.1 °F 85% 30.28 in 9.0 mi ESE 8.1 mph - N/A   Clear
7:54 PM 18.0 °F 8.7 °F 14.0 °F 84% 30.28 in 7.0 mi East 6.9 mph - N/A   Clear
8:54 PM 14.0 °F 5.1 °F 12.0 °F 92% 30.28 in 8.0 mi East 5.8 mph - N/A   Clear
9:54 PM 12.0 °F 2.7 °F 10.0 °F 92% 30.29 in 4.0 mi East 5.8 mph - N/A   Clear
10:34 PM 12.2 °F 6.1 °F 8.6 °F 85% 30.16 in 2.0 mi East 3.5 mph - N/A   Clear
10:51 PM 10.4 °F - 8.6 °F 92% 30.16 in 0.8 mi Calm Calm - N/A   Clear
10:54 PM 10.9 °F - 8.1 °F 88% 30.28 in 0.8 mi Calm Calm - N/A   Clear
11:09 PM 10.4 °F - 8.6 °F 92% 30.16 in 0.2 mi Calm Calm - N/A Fog Light Freezing Fog
11:23 PM 10.4 °F - 8.6 °F 92% 30.16 in 0.5 mi Calm Calm - N/A Fog Light Freezing Fog
11:34 PM 10.4 °F - 8.6 °F 92% 30.17 in 0.2 mi Calm Calm - N/A Fog Light Freezing Fog
11:44 PM 8.6 °F - 5.0 °F 85% 30.16 in 0.5 mi Calm Calm - N/A Fog Light Freezing Fog
11:54 PM 8.1 °F - 6.1 °F 92% 30.28 in 0.5 mi Calm Calm - N/A Fog Light Freezing Fog